Showing default

LEMU-NGE, 60532

Orbit data source: Space-Track

LEMU-NGE, 60532 is a Chilean payload satellite in SSO that was launched on Fri, 16 Aug 2024 UTC via an FALCON 9 launch vehicle from the Air Force Western Test Range (AFWTR). Payload-class satellites include a variety of spacecraft equipped with specific instruments for various scientific and technological missions. These include communications satellites like Starlink; space stations such as the ISS; scientific satellites like the Hubble; Earth observation satellites from companies like Planet Labs, Umbra, and HawkEye 360; GPS; miniature CubeSats for education and research; and military/defense satellites.

Loading next visibility...
Identifier
60532, 2024-149BS
Orbit
SSO
Country
Flag of CLCL / CHLE
Related business
Manufacturer
NanoAvionics
Mission
Operational Commercial Imaging
Bus & Motor
CUBESAT 6U, Unknown motor
Mass
~10 kg wet, ~10 kg dry
Launch date (UTC)
2024-08-16 (2 years ago)
Launch vehicle
FALCON 9
Launch site
Air Force Western Test Range (AFWTR)
Object type
Payload
Rocket body
Debris
Shape & HBR
Box + 2 Pan, 0.2 m
Radar Cross Section
0.080 m², Medium (>0.1 m² and < 1m²)

Expand to show TLE details & history
Last TLE update: 12 hours ago

TLE from 12 hours ago
0 LEMU-NGE
1 60532U 24149BS  26238.45912421  .00001499  00000-0  14158-3 0  9990
2 60532  97.6796 311.9921 0002339 114.7816 245.3648 14.95191955110455
Epoch: 2026-08-26T11:01Z
TLE epoch observation values (Epoch: 2026-08-26T11:01:08.331Z)
Latitude
-0.00008°
Longitude
171.99558°
Altitude
585.505 km
Speed
7.567 km/s
True Right ascension
20h 47m 58s
True Declination
0° 00' 00"
Sunlit
Object was in full shadow at epoch
Visualization orbit readout
Latitude
Unknown
Longitude
Unknown
Altitude
Unknown
Speed
Unknown
Apparent Right ascension
Unknown
Apparent Declination
Unknown
Sunlit
N/A
Visualization observer readout
Local Sidereal Time
14:09:00
Azimuth
Unknown
Elevation
Unknown
Doppler factor
Unknown
Orbital elements
Apogee altitude
580.415 km
Perigee altitude
577.161 km
Semi-major axis
6,956.925 km
Eccentricity
0.00023
Inclination
97.6796°
RAAN
311.9921°
Arg. of periapsis
114.7816°
True anomaly
245.34044°
Mean anomaly
245.3648°
Eccentric anomaly
245.35262°
Mean motion
3.74039 °/min
Orbital period
96.25 mins
BSTAR
0.00014158
Loading maneuver chart data...
Computing Atmospheric mass density...
Loading historical data...
Loading historical data...
Loading historical data...
Loading historical data...
Loading historical data...
Loading historical data...
Loading historical data...

Documentation

Showing up to 5 results
|